Vorticity
12 9 6 4 4 6 8 10 13 16 17 17 14 13 13 15 19 23 26 29 28 23 16 12 17 21 22 20 16 13 10 8 7 6 7 7 8 10 11 13 14 14 14 14 14 14 15 16 16 17 18 16 11 10 10 10 12 13 14 13 10 9 8 8 10 11 11 9 6
13 12 8 5 4 4 6 8 11 14 16 18 16 14 12 13 16 20 25 29 31 27 19 12 13 18 21 18 14 11 10 10 11 10 8 7 8 9 10 11 12 13 14 14 14 14 14 15 14 15 17 17 14 12 10 10 12 14 15 14 11 8 7 7 8 10 11 12 9
14 13 11 7 4 3 4 6 9 12 14 17 17 16 13 11 13 16 21 28 32 30 22 8 6 12 16 13 10 8 8 11 16 17 14 10 9 8 9 10 11 12 12 13 13 13 13 13 13 14 15 16 16 14 12 13 13 13 13 12 9 7 5 4 4 5 8 12 10
14 15 13 9 5 4 3 5 7 10 12 15 17 17 16 12 11 13 17 24 32 32 23 4 -1 4 11 10 8 7 6 7 14 19 20 15 11 10 9 9 10 10 11 12 12 13 13 13 13 13 14 15 16 15 13 12 11 11 10 9 8 6 4 4 3 3 5 8 11
13 15 15 12 7 5 3 4 6 8 11 13 16 18 17 15 12 11 13 18 27 32 28 12 -2 -5 -1 3 4 5 5 1 2 8 14 15 12 12 12 11 10 10 11 12 12 13 13 14 14 14 14 14 15 14 12 9 8 8 8 8 10 9 7 5 4 4 6 9 11
12 16 16 14 10 6 4 3 4 6 9 11 14 17 18 18 14 12 11 13 19 27 32 28 13 2 -4 -4 0 5 6 2 -4 -2 2 6 7 9 12 13 11 10 10 11 12 13 13 14 14 15 15 15 14 13 11 9 7 6 6 7 9 9 8 7 6 5 5 5 8
10 15 18 16 12 8 5 3 3 5 6 9 11 15 17 19 17 14 11 10 12 18 25 32 31 25 18 12 12 14 15 13 6 2 2 3 3 4 7 10 11 10 10 11 12 12 13 13 13 14 14 15 14 14 12 11 9 7 7 7 8 8 7 6 6 6 7 7 8
6 13 18 18 14 10 6 4 3 3 5 6 9 12 15 18 19 17 14 11 10 11 15 21 28 32 34 32 30 28 25 22 18 15 12 11 9 7 7 9 10 11 11 12 11 11 12 12 13 13 14 14 15 14 13 12 11 10 8 8 9 9 8 4 4 5 7 7 8
3 10 17 20 17 12 8 5 3 3 4 5 7 10 13 16 19 19 17 13 11 10 10 13 18 25 31 36 36 32 25 17 14 16 19 20 18 16 14 13 13 13 14 13 13 12 12 12 13 13 13 13 14 14 14 13 12 11 10 9 9 10 10 9 5 5 6 9 10
2 7 14 21 19 15 10 6 4 3 3 4 6 8 10 13 17 19 19 17 13 11 9 10 13 19 25 33 34 29 19 6 5 9 15 19 19 18 18 17 17 17 17 17 16 15 14 14 13 12 12 12 13 14 15 14 13 12 11 10 9 9 9 9 8 7 7 8 10
2 5 11 20 21 18 12 7 5 3 2 3 5 6 8 10 14 17 19 20 17 14 11 9 11 15 21 30 33 27 15 1 1 5 9 11 12 13 14 17 19 19 18 20 19 18 16 15 14 12 11 11 13 14 15 15 15 13 12 11 9 9 10 9 9 9 9 9 9
3 3 8 18 22 20 15 10 6 4 2 2 3 5 6 8 11 14 18 20 20 17 14 11 10 12 17 25 31 29 20 5 2 2 4 4 5 6 8 11 17 18 19 20 20 19 19 17 16 14 13 11 12 13 13 14 14 13 12 11 10 10 11 11 11 11 10 9 9
5 3 6 14 21 22 19 13 8 5 3 2 3 4 5 7 8 11 15 18 20 20 18 15 12 11 12 17 26 30 29 19 8 2 -1 -1 -0 0 2 5 9 12 15 18 18 18 18 18 18 17 15 12 12 12 13 13 13 13 12 11 10 11 12 12 12 12 10 9 8
7 3 4 11 20 23 22 16 10 6 4 2 3 3 4 6 6 8 11 15 18 21 21 19 16 13 11 12 17 24 30 31 23 14 6 0 -2 -3 -3 -1 2 5 8 12 14 15 15 15 17 18 18 15 14 14 14 14 14 13 12 11 11 11 12 12 12 12 11 10 9
9 4 4 9 18 23 24 20 13 8 5 3 3 3 4 5 5 6 8 11 15 19 21 22 20 16 13 11 12 16 21 28 31 30 25 14 3 -3 -6 -5 -2 1 4 7 11 12 12 12 14 16 17 16 17 16 16 15 15 15 14 12 11 11 11 11 11 11 11 11 11
10 6 5 8 16 22 25 23 17 11 7 4 3 3 3 4 4 4 5 7 11 15 19 22 22 20 17 14 11 11 13 18 24 31 34 32 17 4 -4 -6 -5 -3 -0 4 7 10 11 12 12 13 13 14 16 16 16 16 16 16 17 15 13 12 11 10 9 10 10 11 13
10 7 5 7 15 22 25 24 19 14 9 5 4 3 3 4 4 4 4 5 7 10 14 19 22 23 21 18 15 12 11 11 15 21 28 35 29 18 5 -3 -4 -4 -3 -1 3 6 9 12 13 13 13 13 14 14 15 16 15 16 17 17 15 13 11 10 9 8 8 9 11
10 7 5 7 15 21 25 25 21 16 12 7 5 4 3 3 3 3 3 3 5 7 10 14 19 22 24 23 19 16 13 11 11 14 18 26 31 28 19 7 0 -3 -5 -4 -3 -1 3 8 12 15 16 15 14 14 14 15 16 17 18 19 17 14 12 11 10 8 6 5 6
8 6 5 7 14 20 25 25 22 18 14 10 7 5 4 3 3 3 3 3 3 4 6 9 14 19 23 25 23 20 17 13 11 11 12 16 24 28 28 20 9 1 -4 -5 -6 -6 -4 0 6 12 17 20 18 16 14 13 14 15 16 19 19 17 14 12 12 10 8 5 4
6 4 4 6 14 20 24 25 23 20 16 12 9 6 4 3 3 3 4 3 3 3 4 5 9 14 19 23 25 24 21 17 14 12 11 11 16 22 27 29 20 10 1 -4 -6 -7 -8 -6 -2 4 11 18 21 20 18 14 11 10 11 14 18 18 16 14 14 13 11 9 6
4 2 2 6 13 19 23 25 23 21 18 15 11 8 6 4 4 3 4 4 3 3 3 3 5 9 14 19 23 25 24 22 18 15 12 11 12 15 21 27 26 20 10 1 -3 -6 -8 -8 -6 -3 3 9 16 20 21 18 13 9 7 8 11 15 16 16 16 15 14 14 11
4 1 1 4 12 18 22 24 23 21 19 16 13 11 8 6 5 4 4 4 4 3 3 3 3 5 9 14 19 23 25 25 22 19 15 12 12 12 15 19 24 24 19 10 2 -2 -6 -8 -7 -5 -2 1 6 12 17 20 18 14 9 6 7 9 12 14 15 16 17 17 16
5 1 -0 3 10 17 21 23 22 21 19 17 15 13 10 8 6 5 4 4 4 4 4 3 3 3 5 9 14 19 23 25 25 23 19 16 13 12 12 14 18 21 21 17 10 3 -2 -6 -6 -5 -2 -1 0 3 8 15 19 19 17 13 10 10 11 12 15 17 19 19 18
7 2 -1 1 9 15 20 22 21 20 19 17 16 14 12 10 8 7 5 4 4 5 4 4 3 3 3 5 9 15 20 24 25 25 23 20 17 14 13 12 14 16 19 20 16 9 3 -3 -5 -4 -2 0 1 1 2 5 11 16 20 20 18 15 13 12 13 15 17 18 18
10 3 -1 -1 6 13 19 21 21 20 19 17 16 15 14 12 10 8 7 5 5 5 5 5 4 3 3 3 6 10 15 21 24 26 25 23 20 17 14 13 12 13 15 18 18 14 8 1 -3 -4 -3 -0 2 2 2 1 3 8 13 18 21 21 19 15 13 11 10 10 10
13 6 0 -2 3 10 16 20 20 20 19 17 16 15 15 13 12 10 8 6 6 6 6 6 5 4 3 3 4 7 11 16 21 25 26 26 23 20 17 15 13 13 14 15 17 16 13 8 1 -2 -3 -2 1 3 4 4 3 4 5 9 15 19 22 22 19 14 9 5 3
16 10 3 -1 1 6 12 17 19 19 19 17 16 16 15 14 13 11 9 7 6 6 6 6 6 5 4 3 3 5 8 12 18 22 26 27 25 22 19 16 15 14 14 14 15 15 15 13 8 3 -1 -2 -0 1 3 4 5 5 4 4 6 10 15 21 24 23 21 17 12
19 13 7 1 0 3 8 13 16 18 18 17 16 16 15 15 14 13 11 9 7 7 6 7 7 6 5 4 4 4 6 9 15 20 24 27 27 24 21 18 16 15 15 15 15 15 15 15 12 8 4 1 1 1 2 3 4 5 5 4 3 3 5 9 15 20 24 26 25
20 16 11 4 1 2 6 10 13 16 17 17 16 15 15 15 15 14 13 10 8 7 7 7 7 7 6 5 4 4 6 8 13 18 22 26 27 26 23 20 17 16 15 16 16 16 16 15 14 11 8 5 3 2 2 3 4 5 5 5 4 2 1 1 3 7 12 17 21
20 18 14 7 3 2 4 8 11 14 15 16 15 15 15 15 15 15 14 12 9 7 7 8 8 7 6 5 5 5 6 8 12 16 21 24 26 26 25 22 19 16 15 15 16 17 18 17 16 14 12 9 6 4 3 4 4 5 5 5 5 4 3 2 1 1 2 4 8
19 19 16 11 5 3 3 6 10 12 14 15 15 15 15 15 16 15 14 12 10 8 7 8 8 7 7 6 5 5 6 7 11 15 19 23 25 26 25 23 21 18 15 14 14 16 18 19 19 17 16 13 10 7 5 4 5 6 6 6 6 5 5 4 3 2 1 1 1
19 20 19 15 8 5 4 6 9 11 13 15 15 15 15 15 16 15 14 13 10 9 8 7 8 8 7 6 6 6 6 8 11 14 18 21 23 24 24 23 21 19 17 14 13 14 16 18 19 20 19 18 15 12 9 7 7 7 7 7 7 6 5 5 4 4 3 3 2
19 20 21 18 13 8 5 5 8 11 13 14 15 15 16 16 16 16 15 13 10 8 7 8 8 8 7 7 6 6 7 8 11 13 16 19 21 22 22 22 21 20 18 16 14 13 14 15 18 20 21 21 19 17 14 11 9 9 9 9 9 8 7 6 5 4 4 3 3
17 18 20 20 16 12 8 6 7 9 12 14 15 16 16 16 16 16 14 12 10 8 7 8 8 8 8 7 6 7 7 9 11 13 16 18 19 20 20 20 20 19 18 17 15 14 13 13 15 17 19 21 21 20 18 16 13 12 11 11 11 11 10 8 7 6 5 4 4
14 15 17 19 18 15 11 8 7 8 10 13 15 16 17 17 17 15 14 12 10 8 7 8 8 8 8 7 7 7 8 9 11 13 16 17 18 18 18 17 18 18 18 17 16 15 13 12 13 14 16 19 20 21 20 19 17 15 14 14 14 13 13 12 10 9 7 6 5
10 12 14 18 18 17 14 10 8 8 9 12 15 16 17 17 17 15 13 12 9 8 7 8 8 8 8 7 7 8 9 10 12 14 15 16 16 16 16 15 16 16 17 17 17 16 14 13 13 13 14 16 17 19 20 20 19 18 17 16 16 16 16 15 14 13 12 10 8
7 9 13 17 18 18 16 12 10 9 9 12 15 16 17 18 17 15 13 11 9 8 8 8 9 8 8 8 7 8 9 11 12 14 15 16 16 15 14 14 14 15 16 16 16 16 15 14 14 13 13 14 15 16 17 18 19 19 18 18 18 17 17 17 17 16 16 15 13
5 7 12 16 18 18 17 14 11 10 10 12 15 17 18 18 17 15 13 10 9 8 8 8 9 9 8 8 8 8 9 11 13 15 15 16 15 14 13 13 13 14 14 15 15 15 15 14 14 14 13 13 14 15 15 16 17 17 18 18 18 18 18 17 18 18 18 18 17
3 6 11 16 18 19 18 15 12 11 11 13 15 17 18 18 17 15 12 10 9 8 8 9 9 9 8 8 8 8 9 11 13 15 16 15 15 14 13 13 13 13 13 14 14 14 14 14 13 13 13 13 13 13 14 14 15 15 16 16 17 17 17 18 18 18 19 19 19
2 5 10 15 18 19 18 16 14 13 13 14 16 17 18 18 16 15 12 10 8 8 8 9 9 9 8 8 8 8 9 11 13 15 15 15 14 14 13 12 13 13 13 13 13 13 13 13 13 13 13 13 13 13 13 13 13 13 14 14 15 15 16 17 17 17 18 19 19
0 4 8 14 17 19 19 17 16 15 14 15 17 18 18 17 16 14 12 10 8 8 8 8 9 9 8 8 8 8 9 10 12 14 15 15 14 13 13 12 12 13 13 13 13 13 13 13 13 12 12 12 12 12 12 12 12 12 12 12 13 13 14 14 15 15 16 16 17
Height
5576 5576 5576 5576 5576 5576 5576 5575 5575 5575 5576 5576 5577 5577 5578 5578 5578 5579 5580 5581 5583 5584 5586 5588 5589 5590 5592 5594 5596 5597 5599 5601 5603 5605 5608 5610 5612 5614 5616 5618 5621 5623 5625 5627 5628 5631 5633 5636 5639 5642 5645 5648 5651 5653 5656 5658 5661 5663 5665 5668 5670 5672 5674 5676 5678 5680 5683 5685 5687
5573 5573 5573 5573 5573 5573 5573 5573 5573 5573 5573 5573 5574 5574 5575 5575 5576 5576 5577 5578 5579 5581 5583 5585 5587 5588 5589 5591 5592 5593 5595 5598 5600 5602 5604 5606 5608 5610 5612 5615 5617 5618 5620 5622 5624 5626 5628 5631 5634 5637 5640 5644 5647 5649 5652 5655 5657 5659 5661 5664 5666 5668 5671 5673 5674 5676 5679 5682 5684
5570 5570 5571 5571 5571 5571 5571 5571 5570 5570 5570 5571 5571 5572 5572 5573 5573 5574 5574 5575 5576 5578 5580 5582 5583 5585 5586 5587 5588 5589 5592 5595 5597 5598 5600 5602 5604 5606 5608 5611 5613 5614 5616 5618 5620 5622 5624 5627 5629 5632 5635 5638 5642 5645 5648 5650 5652 5654 5657 5660 5662 5664 5667 5670 5672 5674 5676 5678 5681
5568 5568 5568 5568 5568 5568 5568 5568 5568 5568 5568 5568 5568 5569 5569 5570 5570 5571 5572 5573 5574 5575 5577 5578 5579 5580 5582 5583 5584 5586 5588 5591 5594 5596 5597 5598 5600 5603 5604 5607 5608 5610 5612 5614 5616 5618 5621 5623 5626 5628 5631 5634 5637 5640 5643 5645 5648 5650 5652 5655 5658 5661 5664 5667 5669 5671 5673 5675 5678
5565 5564 5565 5565 5565 5565 5566 5565 5565 5565 5565 5565 5566 5566 5567 5567 5568 5568 5569 5570 5571 5572 5573 5575 5576 5577 5578 5579 5581 5583 5585 5588 5590 5592 5594 5595 5597 5599 5601 5603 5604 5607 5608 5610 5613 5615 5617 5620 5622 5624 5627 5629 5632 5635 5638 5641 5643 5646 5648 5650 5654 5657 5660 5662 5665 5667 5669 5671 5673
5562 5562 5562 5562 5562 5563 5563 5563 5563 5563 5563 5563 5563 5563 5564 5564 5565 5566 5567 5567 5568 5569 5570 5572 5573 5574 5575 5576 5578 5580 5582 5584 5586 5587 5589 5591 5593 5596 5598 5599 5601 5603 5605 5607 5609 5611 5613 5616 5618 5621 5623 5625 5628 5630 5633 5636 5639 5641 5644 5646 5650 5653 5656 5658 5660 5663 5665 5667 5670
5558 5558 5558 5559 5559 5559 5560 5560 5560 5560 5560 5560 5561 5561 5561 5562 5563 5563 5564 5564 5565 5566 5567 5568 5569 5571 5572 5573 5575 5577 5579 5580 5582 5583 5585 5587 5589 5592 5594 5596 5597 5599 5601 5603 5606 5608 5610 5612 5614 5617 5619 5621 5624 5626 5629 5632 5634 5637 5640 5642 5645 5648 5652 5654 5656 5658 5661 5663 5666
5555 5555 5555 5555 5556 5556 5557 5557 5557 5558 5558 5558 5558 5558 5559 5559 5560 5560 5561 5562 5562 5563 5564 5565 5566 5567 5568 5570 5571 5573 5575 5577 5579 5580 5582 5584 5586 5588 5589 5591 5593 5595 5598 5600 5602 5604 5606 5608 5611 5613 5615 5618 5620 5623 5625 5628 5630 5633 5635 5638 5641 5644 5647 5649 5652 5654 5657 5659 5662
5552 5552 5552 5552 5553 5553 5553 5554 5554 5555 5555 5555 5556 5556 5556 5557 5557 5558 5558 5559 5559 5560 5561 5562 5563 5563 5565 5566 5568 5570 5572 5574 5577 5578 5579 5581 5583 5585 5586 5588 5590 5592 5594 5596 5598 5601 5603 5605 5608 5610 5612 5614 5617 5619 5621 5623 5626 5629 5631 5634 5637 5639 5642 5645 5648 5650 5653 5655 5658
5549 5549 5549 5549 5549 5549 5550 5551 5551 5552 5552 5553 5553 5553 5554 5554 5554 5555 5555 5556 5557 5557 5558 5559 5560 5561 5562 5563 5565 5567 5569 5571 5573 5575 5577 5579 5580 5582 5584 5585 5587 5589 5591 5593 5595 5597 5599 5602 5604 5606 5609 5612 5614 5616 5617 5619 5622 5625 5627 5630 5633 5635 5638 5641 5644 5646 5648 5651 5653
5546 5546 5546 5546 5546 5546 5547 5548 5548 5549 5549 5550 5550 5551 5551 5551 5552 5552 5553 5553 5554 5554 5555 5556 5557 5558 5559 5560 5562 5563 5565 5568 5570 5572 5574 5576 5578 5580 5581 5583 5584 5586 5588 5589 5591 5593 5596 5598 5600 5603 5605 5608 5610 5613 5614 5616 5618 5621 5623 5625 5628 5632 5635 5637 5639 5642 5644 5646 5648
5543 5543 5543 5543 5543 5543 5543 5544 5545 5546 5547 5547 5548 5548 5548 5549 5549 5549 5550 5550 5551 5552 5553 5553 5555 5556 5557 5558 5559 5561 5563 5564 5566 5568 5571 5573 5575 5577 5579 5580 5582 5583 5585 5586 5588 5590 5592 5594 5597 5599 5602 5604 5607 5609 5611 5613 5615 5617 5619 5621 5624 5628 5630 5632 5635 5637 5639 5641 5643
5539 5539 5539 5539 5540 5540 5540 5541 5542 5543 5543 5544 5545 5545 5546 5546 5547 5547 5548 5548 5548 5549 5550 5551 5552 5553 5554 5555 5557 5558 5560 5562 5563 5565 5567 5569 5572 5573 5575 5577 5579 5581 5582 5584 5585 5587 5589 5591 5593 5596 5598 5600 5603 5605 5608 5609 5611 5613 5615 5617 5620 5623 5625 5627 5630 5632 5634 5637 5639
5536 5536 5536 5536 5537 5537 5537 5538 5539 5540 5540 5541 5542 5543 5543 5543 5544 5544 5545 5545 5546 5547 5547 5548 5549 5550 5551 5553 5554 5555 5557 5558 5560 5562 5564 5566 5568 5570 5572 5573 5575 5577 5579 5581 5583 5584 5586 5588 5590 5593 5595 5597 5599 5601 5604 5606 5608 5609 5611 5613 5616 5618 5621 5623 5625 5627 5630 5632 5634
5533 5533 5533 5533 5533 5533 5534 5535 5536 5536 5537 5538 5539 5540 5540 5541 5542 5542 5543 5543 5543 5544 5545 5545 5546 5547 5548 5550 5551 5552 5553 5555 5557 5559 5561 5563 5564 5566 5568 5569 5571 5573 5576 5578 5580 5582 5583 5585 5587 5589 5591 5593 5596 5598 5600 5602 5603 5605 5607 5609 5612 5614 5616 5618 5620 5623 5626 5628 5630
5530 5530 5530 5530 5530 5530 5531 5532 5532 5533 5534 5535 5536 5537 5538 5538 5539 5539 5540 5541 5541 5542 5542 5543 5544 5545 5546 5547 5548 5549 5551 5552 5553 5555 5557 5559 5561 5563 5565 5566 5568 5569 5572 5574 5577 5579 5581 5583 5584 5586 5588 5590 5593 5595 5597 5598 5600 5601 5603 5605 5608 5610 5612 5614 5616 5619 5621 5624 5626
5527 5527 5527 5527 5527 5528 5528 5528 5529 5530 5531 5532 5533 5534 5535 5536 5536 5537 5538 5538 5539 5539 5540 5540 5541 5542 5543 5544 5545 5547 5548 5549 5550 5552 5553 5555 5558 5559 5561 5563 5564 5566 5568 5570 5573 5575 5578 5580 5582 5583 5585 5587 5589 5591 5593 5595 5596 5598 5599 5601 5603 5606 5608 5610 5612 5614 5617 5620 5621
5524 5524 5524 5524 5524 5524 5525 5525 5526 5527 5528 5528 5530 5531 5532 5533 5534 5534 5535 5536 5536 5537 5538 5538 5539 5539 5540 5541 5543 5544 5545 5546 5548 5549 5550 5552 5554 5556 5558 5560 5561 5563 5565 5567 5568 5571 5573 5576 5578 5580 5582 5584 5586 5588 5590 5592 5593 5594 5596 5597 5599 5601 5603 5605 5608 5610 5612 5614 5616
5521 5521 5521 5521 5521 5522 5522 5522 5523 5523 5524 5525 5526 5528 5529 5530 5531 5532 5533 5533 5534 5534 5535 5536 5537 5537 5538 5539 5540 5541 5542 5543 5545 5546 5547 5549 5551 5553 5554 5556 5558 5560 5562 5563 5565 5567 5569 5572 5574 5576 5578 5581 5583 5584 5587 5588 5590 5592 5593 5594 5595 5597 5599 5602 5604 5606 5608 5609 5611
5518 5518 5518 5518 5518 5518 5519 5519 5520 5520 5521 5522 5523 5524 5526 5527 5528 5529 5530 5531 5531 5532 5533 5533 5534 5535 5536 5536 5537 5538 5539 5541 5542 5543 5544 5546 5548 5549 5551 5553 5555 5557 5559 5560 5562 5563 5566 5568 5570 5572 5574 5576 5579 5581 5583 5585 5587 5588 5590 5591 5592 5594 5596 5598 5600 5602 5603 5605 5607
5515 5515 5515 5515 5515 5516 5516 5516 5517 5517 5518 5519 5520 5522 5523 5524 5525 5526 5527 5528 5529 5529 5530 5531 5532 5533 5533 5534 5535 5536 5537 5538 5539 5540 5542 5543 5545 5546 5548 5550 5552 5554 5556 5558 5559 5560 5562 5564 5566 5568 5570 5572 5574 5576 5578 5581 5583 5584 5586 5588 5589 5591 5593 5594 5596 5598 5600 5601 5603
5512 5512 5512 5513 5513 5513 5513 5513 5514 5514 5515 5516 5517 5518 5520 5521 5522 5523 5524 5525 5526 5527 5528 5529 5529 5530 5531 5532 5532 5533 5534 5535 5536 5537 5538 5540 5542 5543 5545 5547 5549 5551 5553 5555 5556 5557 5559 5560 5562 5564 5566 5568 5570 5572 5574 5576 5578 5580 5582 5584 5586 5588 5589 5591 5593 5595 5597 5598 5600
5508 5509 5509 5509 5509 5510 5510 5510 5511 5511 5512 5513 5514 5515 5517 5518 5519 5520 5521 5522 5523 5524 5525 5526 5527 5528 5528 5529 5530 5531 5531 5532 5533 5534 5536 5537 5539 5540 5542 5544 5546 5548 5550 5552 5553 5554 5556 5557 5558 5560 5562 5564 5566 5568 5569 5571 5573 5575 5578 5579 5581 5583 5585 5587 5589 5591 5593 5594 5596
5505 5506 5506 5507 5507 5507 5507 5508 5508 5508 5509 5510 5511 5513 5513 5515 5516 5517 5518 5519 5521 5522 5523 5523 5524 5525 5526 5527 5528 5528 5529 5530 5530 5532 5533 5534 5536 5537 5539 5541 5543 5545 5547 5548 5550 5551 5553 5554 5555 5557 5558 5560 5562 5563 5565 5567 5569 5571 5573 5575 5577 5579 5581 5583 5585 5587 5588 5590 5592
5502 5503 5503 5503 5504 5504 5504 5505 5505 5506 5507 5508 5508 5509 5511 5512 5513 5514 5515 5517 5518 5519 5520 5521 5522 5523 5523 5524 5525 5526 5526 5527 5528 5529 5530 5531 5533 5534 5536 5538 5540 5541 5543 5545 5547 5548 5550 5551 5552 5553 5555 5556 5558 5560 5561 5563 5565 5566 5568 5570 5572 5574 5576 5578 5580 5582 5584 5585 5587
5498 5499 5500 5501 5501 5501 5501 5502 5502 5503 5504 5505 5505 5507 5508 5509 5510 5511 5513 5514 5515 5516 5517 5518 5519 5520 5521 5522 5522 5523 5524 5524 5525 5526 5527 5528 5529 5531 5533 5535 5536 5538 5539 5541 5543 5545 5547 5548 5549 5550 5551 5553 5554 5556 5558 5559 5561 5563 5564 5566 5568 5570 5572 5574 5576 5578 5580 5581 5583
5495 5496 5497 5498 5498 5498 5498 5499 5500 5500 5501 5502 5503 5504 5505 5506 5507 5508 5509 5511 5512 5513 5514 5515 5516 5517 5518 5519 5520 5520 5521 5522 5523 5523 5524 5525 5527 5528 5530 5531 5533 5534 5536 5538 5540 5542 5543 5545 5546 5547 5548 5549 5551 5552 5554 5556 5557 5559 5561 5563 5565 5566 5568 5570 5572 5573 5576 5578 5579
5492 5493 5494 5495 5495 5495 5496 5496 5497 5498 5498 5499 5500 5501 5502 5503 5504 5505 5507 5508 5509 5510 5512 5513 5513 5514 5515 5516 5517 5518 5518 5519 5520 5520 5521 5522 5523 5525 5527 5528 5529 5531 5533 5534 5536 5538 5540 5541 5543 5544 5545 5546 5547 5548 5550 5552 5554 5556 5558 5559 5561 5563 5565 5566 5568 5569 5571 5573 5575
5489 5490 5491 5492 5492 5493 5493 5493 5494 5495 5496 5496 5497 5498 5499 5500 5501 5503 5504 5505 5506 5508 5509 5510 5511 5512 5513 5513 5514 5515 5516 5517 5517 5518 5518 5519 5520 5522 5523 5525 5526 5528 5529 5531 5533 5534 5536 5538 5539 5540 5542 5543 5544 5545 5547 5548 5551 5553 5554 5556 5558 5559 5561 5563 5564 5566 5568 5569 5571
5486 5487 5488 5488 5489 5490 5490 5491 5491 5492 5493 5493 5494 5495 5496 5498 5498 5500 5501 5502 5503 5505 5506 5507 5508 5509 5510 5511 5512 5513 5513 5514 5514 5515 5516 5517 5518 5519 5520 5522 5523 5524 5526 5528 5529 5531 5532 5534 5535 5537 5538 5539 5541 5542 5544 5546 5548 5549 5551 5553 5555 5556 5558 5559 5561 5563 5564 5565 5567
5483 5484 5485 5486 5486 5487 5488 5488 5488 5489 5490 5491 5492 5493 5494 5495 5496 5497 5498 5500 5501 5502 5503 5504 5505 5506 5507 5508 5509 5510 5510 5511 5512 5512 5513 5514 5515 5516 5517 5518 5520 5522 5523 5525 5526 5527 5529 5530 5532 5533 5535 5537 5538 5540 5541 5543 5545 5547 5548 5550 5552 5553 5555 5556 5557 5559 5560 5562 5563
5480 5481 5482 5483 5483 5484 5485 5485 5486 5487 5488 5488 5489 5490 5491 5492 5493 5494 5495 5497 5498 5499 5500 5502 5503 5504 5505 5505 5506 5507 5508 5508 5509 5509 5510 5511 5512 5513 5514 5515 5517 5518 5520 5521 5523 5524 5526 5527 5528 5530 5532 5534 5536 5537 5539 5540 5542 5543 5545 5547 5548 5550 5551 5553 5554 5555 5556 5558 5559
5478 5478 5479 5480 5481 5482 5482 5483 5483 5484 5485 5486 5487 5488 5488 5489 5490 5492 5493 5494 5495 5497 5498 5499 5500 5501 5502 5503 5504 5504 5505 5506 5506 5507 5508 5508 5509 5510 5511 5513 5514 5515 5517 5518 5520 5521 5523 5525 5526 5527 5529 5531 5533 5534 5536 5538 5539 5540 5542 5543 5545 5546 5548 5549 5550 5551 5553 5554 5556
5475 5476 5477 5478 5478 5479 5480 5480 5481 5482 5483 5483 5484 5485 5486 5487 5488 5489 5490 5491 5493 5494 5495 5496 5497 5498 5499 5500 5501 5502 5502 5503 5503 5504 5505 5506 5507 5508 5509 5510 5511 5513 5514 5515 5517 5518 5520 5522 5523 5524 5526 5528 5529 5531 5533 5534 5536 5537 5538 5540 5541 5543 5544 5545 5547 5548 5549 5551 5552
5473 5473 5474 5475 5476 5476 5477 5478 5478 5479 5480 5480 5481 5482 5483 5484 5485 5486 5488 5489 5490 5491 5493 5493 5494 5496 5496 5497 5498 5499 5500 5500 5501 5502 5503 5503 5504 5505 5507 5508 5508 5509 5511 5512 5513 5515 5517 5518 5520 5522 5523 5525 5526 5528 5530 5531 5533 5534 5535 5537 5538 5539 5540 5542 5543 5544 5546 5548 5549
5470 5471 5472 5473 5473 5474 5474 5475 5476 5477 5477 5478 5478 5479 5480 5481 5483 5484 5485 5486 5488 5489 5490 5491 5492 5493 5494 5495 5495 5496 5497 5498 5498 5499 5500 5501 5502 5503 5504 5505 5506 5507 5508 5509 5511 5513 5514 5515 5517 5518 5520 5521 5523 5525 5526 5528 5529 5531 5532 5533 5534 5535 5537 5538 5539 5541 5542 5544 5545
5468 5468 5469 5470 5470 5471 5472 5473 5473 5474 5474 5475 5476 5477 5478 5479 5480 5481 5482 5483 5485 5486 5487 5488 5489 5490 5491 5492 5493 5493 5494 5495 5496 5497 5498 5498 5500 5501 5502 5503 5503 5504 5506 5507 5508 5510 5511 5513 5514 5515 5517 5518 5520 5521 5523 5524 5526 5527 5528 5529 5531 5532 5533 5534 5536 5537 5539 5540 5542
5465 5466 5467 5467 5468 5468 5469 5470 5471 5471 5472 5473 5473 5474 5475 5476 5478 5479 5480 5481 5483 5484 5485 5486 5487 5488 5489 5489 5490 5491 5492 5493 5493 5494 5495 5496 5497 5498 5500 5501 5501 5502 5503 5504 5506 5507 5508 5509 5511 5512 5513 5515 5517 5518 5519 5521 5523 5524 5525 5526 5527 5528 5529 5531 5533 5534 5535 5537 5538
5463 5463 5464 5465 5465 5466 5467 5468 5468 5469 5469 5470 5471 5472 5473 5474 5475 5476 5478 5479 5480 5481 5483 5484 5485 5485 5486 5487 5488 5488 5489 5490 5491 5492 5493 5494 5495 5496 5497 5498 5499 5500 5501 5502 5503 5504 5505 5507 5508 5509 5511 5512 5513 5515 5516 5518 5519 5520 5522 5523 5524 5525 5527 5528 5529 5531 5532 5533 5534
5460 5461 5462 5462 5463 5463 5464 5465 5466 5466 5467 5468 5468 5469 5470 5471 5473 5474 5475 5476 5478 5479 5480 5481 5482 5483 5484 5484 5485 5486 5487 5488 5488 5489 5490 5492 5493 5493 5494 5495 5496 5497 5498 5499 5500 5501 5503 5504 5505 5506 5508 5509 5510 5512 5513 5515 5516 5517 5518 5520 5521 5523 5524 5525 5526 5528 5529 5530 5531
5457 5458 5459 5460 5460 5461 5462 5463 5463 5464 5465 5465 5466 5467 5468 5469 5470 5472 5473 5474 5475 5476 5478 5479 5480 5481 5481 5482 5483 5483 5484 5485 5486 5487 5488 5489 5490 5491 5492 5493 5494 5495 5496 5497 5498 5499 5500 5502 5503 5504 5505 5506 5508 5509 5510 5512 5513 5514 5516 5517 5518 5520 5521 5522 5523 5525 5526 5527 5528